Tracking 30509 objects as of 18-May-2025
HD Live streaming from Space Station
objects crossing your sky now

ATLAS 5 CENTAUR DEB

Track ATLAS 5 CENTAUR DEB now!


NORAD ID: 52971
Int'l Code: 2018-079GW
Perigee: 8,463.8 km
Apogee: 35,409.4 km
Inclination: 12.6 °
Period: 790.0 minutes
Semi major axis: 28307 km
RCS: Unknown
Launch date: October 17, 2018
Source: United States (US)
Launch site: AIR FORCE EASTERN TEST RANGE (AFETR)

Note: This is SATELLITE DEBRIS
Your satellite tracking list
Your tracking list is empty




NASA's NSSDC Master Catalog

Two Line Element Set (TLE):
1 52971U 18079GV  25137.76275272 -.00000059  00000-0  00000+0 0  9999
2 52971  12.6056  72.1496 4759438 251.9967  51.9838  1.82284125 23657
Source of the keplerian elements: AFSPC